This is the latest recevied weather packets stored in our database for station/object N8VDS-10. If no packets are shown the sender has not sent any weather packets the latest 10 day(s).
| Time | Temp. | Humidity | Pressure | Rain* | Wind** | Luminosity | Snow |
|---|---|---|---|---|---|---|---|
| 1778013259 | 13.33° C | 47% | 1010.7 hPa | 0 mm | - | 170 W/m² | - |
| 1778012956 | 13.33° C | 47% | 1010.8 hPa | 0 mm | - | 167 W/m² | - |
| 1778012652 | 13.33° C | 48% | 1010.7 hPa | 0 mm | - | 180 W/m² | - |
| 1778012349 | 13.33° C | 48% | 1010.6 hPa | 0 mm | - | 214 W/m² | - |
| 1778012046 | 13.33° C | 48% | 1010.7 hPa | 0 mm | - | 228 W/m² | - |
| 1778011744 | 12.78° C | 48% | 1010.7 hPa | 0 mm | - | 204 W/m² | - |
| 1778011441 | 12.78° C | 49% | 1010.7 hPa | 0 mm | - | 170 W/m² | - |
| 1778011136 | 12.78° C | 48% | 1010.8 hPa | 0 mm | - | 174 W/m² | - |
| 1778010834 | 12.78° C | 51% | 1010.8 hPa | 0 mm | - | 190 W/m² | - |
| 1778010531 | 12.78° C | 50% | 1010.7 hPa | 0 mm | - | 204 W/m² | - |
| 1778010229 | 12.78° C | 50% | 1010.8 hPa | 0 mm | - | 217 W/m² | - |
| 1778009929 | 13.33° C | 52% | 1010.8 hPa | 0 mm | - | 241 W/m² | - |
| 1778009627 | 12.78° C | 51% | 1010.7 hPa | 0 mm | - | 236 W/m² | - |
| 1778009324 | 12.78° C | 52% | 1010.5 hPa | 0 mm | - | 231 W/m² | - |
| 1778009023 | 12.78° C | 56% | 1010.8 hPa | 0 mm | - | 249 W/m² | - |
| 1778008720 | 12.78° C | 56% | 1010.8 hPa | 0 mm | - | 290 W/m² | - |
| 1778008418 | 12.78° C | 58% | 1010.7 hPa | 0 mm | - | 252 W/m² | - |
| 1778008115 | 12.78° C | 59% | 1010.7 hPa | 0 mm | - | 263 W/m² | - |
| 1778007810 | 12.78° C | 62% | 1010.6 hPa | 0 mm | - | 265 W/m² | - |
| 1778007506 | 12.78° C | 62% | 1010.6 hPa | 0 mm | - | 269 W/m² | - |
| 1778007202 | 12.22° C | 63% | 1010.7 hPa | 0 mm | - | 232 W/m² | - |
| 1778006899 | 12.22° C | 63% | 1010.8 hPa | 0 mm | - | 180 W/m² | - |
| 1778006596 | 12.22° C | 62% | 1010.7 hPa | 0 mm | - | 167 W/m² | - |
| 1778006293 | 12.78° C | 62% | 1010.7 hPa | 0 mm | - | 130 W/m² | - |
| 1778005990 | 12.22° C | 62% | 1010.6 hPa | 0 mm | - | 144 W/m² | - |
* Rain latest hour (hover to see other rain measurements)
** Current wind speed in m/s (hover to see current wind gust speed)